Regional Weather Roundup
Issued by NWS

Home | Current Version | Previous Version | Text Only | Print | Product List | Glossary Off
Versions: 1 2 3 4 5 6 7 8 9 10 11 12 13 14 15 16 17 18 19 20 21 22 23 24 25 26 27 28 29 30 31 32 33 34 35 36 37 38 39 40 41 42 43 44 45 46 47 48 49 50

000
ASUS43 KBIS 290510
RWRND

NORTH DAKOTA REGIONAL WEATHER ROUNDUP
NATIONAL WEATHER SERVICE BISMARCK ND
1200 AM CDT TUE JUL 29 2014

NOTE: "FAIR" INDICATES FEW OR NO CLOUDS BELOW 12,000 FEET WITH NO
SIGNIFICANT WEATHER AND/OR OBSTRUCTIONS TO VISIBILITY.


NDZ001>003-009>011-017-290600-
NORTHWEST NORTH DAKOTA

CITY           SKY/WX    TMP DP  RH WIND       PRES   REMARKS
WILLISTON      CLEAR     67  55  65 CALM      30.22S
MINOT          CLEAR     63  55  75 S3        30.22S
MINOT AFB      CLEAR     60  57  89 S5        30.21F
$$

NDZ018>021-031>035-040>046-290600-
SOUTHWEST NORTH DAKOTA

CITY           SKY/WX    TMP DP  RH WIND       PRES   REMARKS
BISMARCK       CLEAR     59  52  77 E3        30.24S
DICKINSON      PTCLDY    58  52  80 SE8       30.24F
GARRISON         N/A     57  53  86 CALM      30.23F
HETTINGER ARPT CLEAR     59  50  72 SE6       30.27F
$$

NDZ004>008-012>016-024-026-027-054-290600-
NORTHEAST NORTH DAKOTA

CITY           SKY/WX    TMP DP  RH WIND       PRES   REMARKS
GRAND FORKS    CLEAR     56  54  93 W7        30.18S
GRND FRKS AFB  CLEAR     56  56 100 W2        30.19F
DEVILS LAKE    CLEAR     59  54  82 CALM      30.20S
$$

NDZ022-023-025-028>030-036>039-047>053-290600-
SOUTHEAST NORTH DAKOTA

CITY           SKY/WX    TMP DP  RH WIND       PRES   REMARKS
FARGO          CLEAR     58  53  84 W5        30.19S
JAMESTOWN      CLEAR     56  52  86 CALM      30.22S
$$




USA.gov is the U.S. government's official web portal to all federal, state and local government web resources and services.